TimeCST,TemperatureF,Dew PointF,Humidity,Sea Level PressureIn,VisibilityMPH,Wind Direction,Wind SpeedMPH,Gust SpeedMPH,PrecipitationIn,Events,Conditions,WindDirDegrees,DateUTC
12:15 AM,10.4,7.7,89,30.36,3.0,North,12.7,-,N/A,Snow,Light Snow,360,2014-03-02 06:15:00
12:35 AM,10.4,7.5,88,30.37,3.0,North,11.5,-,N/A,Snow,Light Snow,350,2014-03-02 06:35:00
12:55 AM,10.0,7.3,89,30.38,3.0,North,12.7,-,N/A,Snow,Light Snow,350,2014-03-02 06:55:00
1:15 AM,9.5,7.0,90,30.38,1.5,NNW,13.8,-,N/A,Snow,Light Snow,340,2014-03-02 07:15:00
1:35 AM,9.0,6.3,89,30.38,3.0,North,15.0,-,N/A,Snow,Light Snow,350,2014-03-02 07:35:00
2:00 AM,8.6,5.5,87,30.38,3.0,North,15.0,-,N/A,Snow,Light Snow,350,2014-03-02 08:00:00
2:15 AM,8.4,5.4,87,30.38,2.5,North,15.0,21.9,N/A,Snow,Light Snow,350,2014-03-02 08:15:00
2:35 AM,8.1,4.8,87,30.37,5.0,North,12.7,-,N/A,Snow,Light Snow,350,2014-03-02 08:35:00
2:55 AM,7.7,4.6,87,30.37,2.5,North,18.4,23.0,N/A,Snow,Light Snow,360,2014-03-02 08:55:00
3:15 AM,7.3,3.9,86,30.37,4.0,North,17.3,-,N/A,Snow,Light Snow,350,2014-03-02 09:15:00
3:35 AM,7.3,4.1,87,30.39,2.5,NNW,16.1,-,N/A,Snow,Light Snow,340,2014-03-02 09:35:00
3:55 AM,6.8,3.7,87,30.38,4.0,North,15.0,-,N/A,Snow,Light Snow,350,2014-03-02 09:55:00
4:15 AM,6.8,3.6,87,30.38,7.0,North,17.3,-,N/A,Snow,Light Snow,350,2014-03-02 10:15:00
4:35 AM,6.6,3.2,86,30.39,5.0,North,13.8,-,N/A,Snow,Light Snow,350,2014-03-02 10:35:00
4:55 AM,6.4,3.0,86,30.40,5.0,North,17.3,-,N/A,Snow,Light Snow,350,2014-03-02 10:55:00
5:15 AM,6.3,2.3,84,30.40,7.0,North,17.3,-,N/A,Snow,Light Snow,350,2014-03-02 11:15:00
5:35 AM,6.3,1.9,82,30.41,10.0,North,18.4,-,N/A,,Mostly Cloudy,350,2014-03-02 11:35:00
5:55 AM,6.3,1.4,80,30.41,10.0,North,17.3,-,N/A,,Overcast,350,2014-03-02 11:55:00
6:15 AM,6.3,1.0,79,30.42,10.0,North,17.3,-,N/A,,Overcast,350,2014-03-02 12:15:00
6:35 AM,5.9,0.5,78,30.43,10.0,NNW,18.4,23.0,N/A,,Overcast,340,2014-03-02 12:35:00
6:55 AM,5.2,-0.6,77,30.43,10.0,NNW,16.1,-,N/A,,Mostly Cloudy,340,2014-03-02 12:55:00
7:15 AM,4.8,-1.1,76,30.44,10.0,NNW,15.0,-,N/A,,Scattered Clouds,340,2014-03-02 13:15:00
7:35 AM,4.8,-1.3,76,30.44,10.0,North,16.1,-,N/A,,Overcast,350,2014-03-02 13:35:00
7:55 AM,4.8,-1.3,76,30.44,10.0,North,17.3,-,N/A,,Overcast,350,2014-03-02 13:55:00
8:15 AM,4.5,-2.2,74,30.47,10.0,NNW,18.4,23.0,N/A,,Overcast,340,2014-03-02 14:15:00
8:35 AM,4.6,-1.8,75,30.47,10.0,North,18.4,26.5,N/A,,Overcast,350,2014-03-02 14:35:00
8:55 AM,4.8,-1.8,74,30.48,10.0,NNW,15.0,-,N/A,,Overcast,340,2014-03-02 14:55:00
9:15 AM,5.0,-2.0,73,30.48,10.0,NNW,18.4,23.0,N/A,,Overcast,340,2014-03-02 15:15:00
9:35 AM,5.5,-1.5,73,30.47,10.0,North,17.3,-,N/A,,Overcast,350,2014-03-02 15:35:00
9:55 AM,5.0,-2.2,72,30.47,10.0,North,19.6,25.3,N/A,,Overcast,350,2014-03-02 15:55:00
10:15 AM,5.9,-1.1,73,30.49,10.0,NNW,17.3,20.7,N/A,,Overcast,340,2014-03-02 16:15:00
10:35 AM,5.4,-2.2,71,30.49,10.0,North,16.1,-,N/A,,Overcast,350,2014-03-02 16:35:00
10:55 AM,5.7,-2.4,69,30.49,10.0,North,16.1,-,N/A,,Overcast,350,2014-03-02 16:55:00
11:15 AM,5.7,-2.7,68,30.48,10.0,North,17.3,21.9,N/A,,Mostly Cloudy,360,2014-03-02 17:15:00
11:35 AM,5.9,-2.4,69,30.48,10.0,North,17.3,-,N/A,,Scattered Clouds,350,2014-03-02 17:35:00
11:55 AM,5.9,-2.6,68,30.47,10.0,North,16.1,21.9,N/A,,Clear,350,2014-03-02 17:55:00
12:15 PM,6.3,-2.0,69,30.46,10.0,North,17.3,-,N/A,,Clear,350,2014-03-02 18:15:00
12:35 PM,5.9,-2.9,67,30.45,10.0,NNW,16.1,-,N/A,,Clear,340,2014-03-02 18:35:00
12:55 PM,6.3,-3.3,65,30.43,10.0,North,18.4,-,N/A,,Clear,360,2014-03-02 18:55:00
1:15 PM,6.4,-2.9,65,30.45,10.0,North,15.0,20.7,N/A,,Clear,350,2014-03-02 19:15:00
1:35 PM,6.4,-2.9,65,30.45,10.0,North,18.4,23.0,N/A,,Clear,350,2014-03-02 19:35:00
1:55 PM,6.3,-2.9,66,30.44,10.0,North,17.3,-,N/A,,Clear,350,2014-03-02 19:55:00
2:15 PM,5.9,-3.5,65,30.44,10.0,North,19.6,24.2,N/A,,Clear,360,2014-03-02 20:15:00
2:35 PM,5.5,-4.7,63,30.43,10.0,North,17.3,-,N/A,,Clear,360,2014-03-02 20:35:00
2:55 PM,5.5,-6.0,59,30.44,10.0,North,19.6,-,N/A,,Clear,360,2014-03-02 20:55:00
3:15 PM,5.2,-5.4,62,30.46,10.0,North,19.6,-,N/A,,Clear,360,2014-03-02 21:15:00
3:35 PM,5.0,-5.6,62,30.46,10.0,NNW,16.1,-,N/A,,Clear,340,2014-03-02 21:35:00
3:55 PM,4.8,-5.6,62,30.46,10.0,NNW,16.1,-,N/A,,Clear,340,2014-03-02 21:55:00
4:15 PM,4.8,-6.3,60,30.46,10.0,North,16.1,-,N/A,,Clear,350,2014-03-02 22:15:00
4:35 PM,4.5,-6.7,60,30.45,10.0,North,15.0,-,N/A,,Clear,350,2014-03-02 22:35:00
4:55 PM,4.3,-6.7,60,30.45,10.0,North,16.1,-,N/A,,Clear,360,2014-03-02 22:55:00
5:15 PM,4.1,-7.2,59,30.45,10.0,North,17.3,-,N/A,,Clear,360,2014-03-02 23:15:00
5:35 PM,4.1,-7.2,59,30.46,10.0,North,15.0,-,N/A,,Clear,350,2014-03-02 23:35:00
5:55 PM,3.4,-7.6,60,30.47,10.0,North,16.1,-,N/A,,Clear,350,2014-03-02 23:55:00
6:15 PM,3.0,-8.0,60,30.48,10.0,North,13.8,-,N/A,,Clear,360,2014-03-03 00:15:00
6:35 PM,3.0,-6.7,64,30.47,10.0,North,16.1,-,N/A,,Clear,360,2014-03-03 00:35:00
6:55 PM,2.8,-6.7,64,30.47,10.0,North,11.5,-,N/A,,Clear,350,2014-03-03 00:55:00
7:15 PM,2.3,-8.0,62,30.47,10.0,North,15.0,19.6,N/A,,Clear,350,2014-03-03 01:15:00
7:35 PM,2.1,-7.6,64,30.47,10.0,North,12.7,-,N/A,,Clear,350,2014-03-03 01:35:00
7:55 PM,1.9,-7.6,64,30.48,10.0,NNW,11.5,-,N/A,,Clear,340,2014-03-03 01:55:00
8:15 PM,1.6,-7.6,65,30.48,10.0,NNW,16.1,-,N/A,,Clear,340,2014-03-03 02:15:00
8:35 PM,1.4,-8.0,65,30.48,10.0,NNW,12.7,-,N/A,,Clear,340,2014-03-03 02:35:00
8:55 PM,1.0,-8.5,64,30.47,10.0,North,11.5,-,N/A,,Clear,350,2014-03-03 02:55:00
9:15 PM,0.5,-8.7,65,30.48,10.0,North,9.2,-,N/A,,Clear,350,2014-03-03 03:15:00
9:35 PM,0.5,-8.7,65,30.49,10.0,North,9.2,-,N/A,,Clear,350,2014-03-03 03:35:00
9:55 PM,0.5,-8.7,65,30.49,10.0,NNW,12.7,-,N/A,,Clear,340,2014-03-03 03:55:00
10:15 PM,0.1,-9.0,65,30.50,10.0,NNW,15.0,-,N/A,,Clear,340,2014-03-03 04:15:00
10:35 PM,-0.4,-9.6,65,30.49,10.0,NNW,12.7,-,N/A,,Clear,340,2014-03-03 04:35:00
10:55 PM,-0.8,-9.6,66,30.49,10.0,NNW,13.8,-,N/A,,Clear,340,2014-03-03 04:55:00
11:15 PM,-1.3,-10.1,66,30.47,10.0,NNW,13.8,19.6,N/A,,Clear,340,2014-03-03 05:15:00
11:35 PM,-1.5,-10.3,66,30.49,10.0,NNW,15.0,21.9,N/A,,Clear,340,2014-03-03 05:35:00
11:55 PM,-1.7,-10.1,67,30.49,10.0,NNW,16.1,-,N/A,,Clear,340,2014-03-03 05:55:00